Etusivu
METAR-TAF:

METAR-TAF

Lentoasemat :

Beaver Island Airport

Beaver Island, Michigan, Yhdysvallat

Leveyspiiri: 45-41-32N, Pituuspiiri: 085-33-59W, korkeus merenpinnasta: 204 m

Tämänhetkinen sää

Tämä raportti tehtiin 7 minuuttia sitten, kello 10.15 UTC
Tuuli 5 kn idästä
Lämpötila -2°C
Kosteus 100%
Ilmanpaine 1007 hPa
Näkyvyys: 2.8 km
Pilvistä 600 ft:n korkeudessa
heikkoa lumisadetta

METAR: KSJX 181015Z AUTO 08005KT 1 3/4SM -SN OVC006 M02/M02 A2973 RMK AO2 T10171021

Aika: 05:22 (10:22 UTC)


TAF: puuttuu

Säähavainnot ja -ennusteet yli 4000 lentoasemalta (METAR- ja TAF-raportit).

Käytössä olevat sääasemat on merkitty karttaan keltaisilla ja punaisilla pisteillä.

Aseta hiiri pisteen päälle nähdäksesi sääaseman nimen.

Klikkaa sitten nähdäksesi säähavainnot ja -ennusteet.

Kartan vaihtaminen: klikkaa mustalla rastilla varustettuja vihreitä pisteitä, niin voit zoomata sisään; viivalla varustettua vihreää pistettä, niin voit zoomata ulos tai vihreitä nuolia, niin pääset viereisille kartoille.


METAR-TAF: